Regional Weather Roundup
Issued by NWS

Home | Current Version | Previous Version | Graphics & Text | Print | Product List | Glossary On
Versions: 1 2 3 4 5 6 7 8 9 10 11 12 13 14 15 16 17 18 19 20 21 22 23 24 25 26 27 28 29 30 31 32 33 34 35 36 37 38 39 40 41 42 43 44 45 46 47 48 49 50
000
ASUS43 KDMX 030807
RWRIA

WEATHER ROUNDUP FOR IOWA
NATIONAL WEATHER SERVICE DES MOINES IA
300 AM CDT SUN MAY 03 2015

NOTE: "FAIR" INDICATES FEW OR NO CLOUDS BELOW 12,000 FEET WITH NO
SIGNIFICANT WEATHER AND/OR OBSTRUCTIONS TO VISIBILITY.

* - THESE STATIONS ARE NOT NWS STATIONS...THUS NOT UNDER NWS
QUALITY CONTROL.  THEY ALSO DO NOT REPORT WEATHER SUCH
AS PRECIPITATION OR FOG.

IAZ001>003-012>014-020>022-031>034-043>046-030900-
   NORTHWEST IOWA

CITY           SKY/WX    TMP DP  RH WIND       PRES   REMARKS
CARROLL *      CLEAR     63  54  72 SW7       29.71F
CHEROKEE *     CLOUDY    54  52  94 SE3       29.73S
DENISON *      CLEAR     72  43  35 S17G32    29.68S
LE MARS *      CLEAR     59  54  82 SW3       29.74R
ORANGE CITY *  CLEAR     55  52  88 S5        29.73S
SHELDON *      CLEAR     57  55  94 SE9       29.72S
SIOUX CITY     CLOUDY    62  51  67 N3        29.72R
SPENCER        CLOUDY    56  52  86 SE8       29.74F
STORM LAKE *   CLEAR     55  52  88 SE5       29.75R
$$

IAZ055>058-069>071-079>083-090>094-030900-
   SOUTHWEST IOWA

CITY           SKY/WX    TMP DP  RH WIND       PRES   REMARKS
ATLANTIC *     LGT RAIN  61  61 100 S10       29.83F
AUDUBON *      RAIN      63  55  77 SW15G29   29.82R
CLARINDA *     CLOUDY    63  57  82 E5        29.89F
COUNCIL BLFS * LGT RAIN  59  59 100 E5        29.84R
CRESTON *      MOCLDY    61  55  82 SW14      29.88R
HARLAN  *      CLOUDY    61  61 100 S8        29.86F
LAMONI         CLOUDY    59  52  77 S9        29.86S
RED OAK *      LGT RAIN  61  61 100 SE8       29.85F
SHENANDOAH *   CLOUDY    63  59  88 E10       29.85F
$$

IAZ047>049-059>061-072>074-084-030900-
   CENTRAL IOWA

CITY           SKY/WX    TMP DP  RH WIND       PRES   REMARKS
AMES           CLOUDY    57  50  77 S13       29.82F
ANKENY *       PTCLDY    57  50  77 CALM      29.84R
CHARITON *     CLOUDY    59  52  77 S12G17    29.86S
DES MOINES     LGT RAIN  61  52  72 S14       29.84S
GRINNELL*      CLOUDY    57  50  77 SE10      29.88S
KNOXVILLE *    PTCLDY    59  50  72 S8        29.85S
MARSHALLTOWN   CLOUDY    57  51  80 S10       29.86S
PELLA *        CLOUDY    57  54  88 SE7       29.87F
PERRY *          N/A     61  54  77 S18       29.76F
$$

IAZ004>006-015-016-023>025-035-036-030900-
   NORTH CENTRAL IOWA

CITY           SKY/WX    TMP DP  RH WIND       PRES   REMARKS
ALGONA *       CLEAR     57  54  88 SE10      29.77F
CLARION *      PTCLDY    59  54  82 SE17      29.79F
ESTHERVILLE    CLOUDY    56  51  84 S13       29.74F
FORT DODGE *   CLOUDY    57  52  82 S10G16    29.77F
MASON CITY     MOCLDY    55  49  80 S9        29.82F
FOREST CITY *  CLEAR     52  50  93 SE8       29.79F
IOWA FALLS *   MOCLDY    57  52  82 SE15      29.82F
$$

IAZ007>011-017>019-026>030-037>042-050>054-066-030900-
   NORTHEAST IOWA

CITY           SKY/WX    TMP DP  RH WIND       PRES   REMARKS
CEDAR RAPIDS     N/A    N/A N/A N/A MISG        N/A
CHARLES CITY * MOCLDY    59  50  72 S16       29.84F
CLINTON *        N/A     61  48  63 S9        29.95S
DECORAH *      CLOUDY    57  52  82 S7        29.85F
DUBUQUE        PTCLDY    53  49  86 SW7       29.91F
MONTICELLO *   CLOUDY    59  54  82 SE7       29.91S
OELWEIN *      PTCLDY    57  52  82 S10       29.88S
WATERLOO       MOCLDY    58  50  75 S14G20    29.85F
$$

IAZ064-065-067-068-078-030900-
   EAST CENTRAL IOWA

CITY           SKY/WX    TMP DP  RH WIND       PRES   REMARKS
DAVENPORT      MOCLDY    62  46  55 S10       29.93F
IOWA CITY      CLOUDY    57  52  83 S17       29.92F
MT. PLEASANT * MOCLDY    57  48  72 CALM      29.92S
MUSCATINE *    CLEAR     61  50  67 S7        29.92F
QUAD CITIES    CLOUDY    61  48  62 VRB5      29.92F
$$

IAZ062-063-075>077-085>089-095>099-030900-
   SOUTHEAST IOWA

CITY           SKY/WX    TMP DP  RH WIND       PRES   REMARKS
BURLINGTON     PTCLDY    58  47  66 S7        29.92F
FAIRFIELD *    PTCLDY    54  50  87 E8        29.91R
FORT MADISON * CLEAR     59  48  67 S12G17    29.92F
KEOKUK *       CLEAR     57  48  72 SE6       29.92R
OSKALOOSA *      N/A     54  50  87 SE10      29.89S
CENTERVILLE *  CLEAR     55  52  88 S8        29.89F
OTTUMWA        CLOUDY    57  50  77 S12       29.88F
WASHINGTON *   CLOUDY    57  57 100 SE7G15    29.91F
$$

ABBREVIATIONS USED IN REMARKS
   TC - TEMPERATURES IN CELSIUS
  WCI - WIND CHILL INDEX
   HX - HEAT INDEX
  VSB - VISIBILITY
$$



USA.gov is the U.S. government's official web portal to all federal, state and local government web resources and services.